Regional Weather Roundup
Issued by NWS Grand Forks, ND

Home | Current Version | Previous Version | Graphics & Text | Print | Product List | Glossary On
Versions: 1 2 3 4 5 6 7 8 9 10 11 12 13 14 15 16 17 18 19 20 21 22 23 24 25 26 27 28 29 30 31 32 33 34 35 36 37 38 39 40 41 42 43 44 45 46 47 48 49 50
000
ASUS43 KFGF 210531
RWRFGF
PRAIRIE TO PINES  WEATHER ROUNDUP
NATIONAL WEATHER SERVICE EASTERN NORTH DAKOTA/GRAND FORKS ND
1100 PM CST TUE FEB 20 2018

 **SATELLITE DATA USED TO AUGMENT SKY COVER AT AUTOMATED STATIONS**
 *****  WEATHER ACROSS EASTERN NORTH DAKOTA  *****

CITY           SKY/WX    TMP DP  RH WIND       PRES   REMARKS
GRAND FORKS    MOCLDY     4  -3  73 SW10      30.23S WCI -11
GRAND FRKS AFB NOT AVBL
GRAND FRKS NWS   N/A      2  -3  81 W9        30.20F WCI -13
DEVILS LAKE    FAIR      -2  -8  76 W13       30.19R WCI -20
FARGO          FAIR       2  -4  76 SW12      30.29R WCI -15
WAHPETON ARPT  FAIR      -4  -9  77 W10       30.34R WCI -21
$$

 ***** WEATHER ACROSS CENTRAL AND WESTERN NORTH DAKOTA  *****

CITY           SKY/WX    TMP DP  RH WIND       PRES   REMARKS
BISMARCK       FAIR      -2  -9  72 W7        30.28R WCI -15
MINOT          FAIR       3  -7  63 SW22G30   30.17R WCI -19
JAMESTOWN      FAIR       2  -5  72 W13       30.24R WCI -15
MINOT AFB      FAIR       0  -8  67 W16       30.16R WCI -20
GARRISON         N/A     -5 -11  75 W10       30.20R WCI -23
WILLISTON      MOCLDY    -4 -12  68 S8        30.23R WCI -19
DICKINSON      FAIR      -6 -15  65 W12       30.18R WCI -25
HETTINGER      FAIR     -10 -16  74 W12       30.23R WCI -30
$$

 *****  OTHER AIRPORT OBSERVATIONS IN OUR AREA  *****

CITY           SKY/WX    TMP DP  RH WIND       PRES   REMARKS
WALHALLA       FAIR       5  -4  66 W17G28    30.14F WCI -14
GRAFTON AIRPOR FAIR       3  -2  78 W14       30.22S WCI -15
VALLEY CITY AR FAIR       0  -6  78 W16       30.26R WCI -21
CANDO          CLOUDY     0  -6  78 W15       30.18R WCI -20
CAVALIER APRT    N/A      7  -2  66 W16       30.17S WCI -11
GWINNER          N/A     -4  -9  77 SW10      30.31R WCI -21
SHEYENNE NWR     N/A     -2  -8  74 SW7       29.95S WCI -15
ROLLA          FAIR       0  -8  71 W14       30.11S WCI -19
 ***** THE ABOVE OBSERVATIONS ARE NON NWS ARE NOT QUALITY
       CONTROLLED AND MAY MIS-REPORT RAIN FOR SNOW...
$$

  *****  WEATHER ACROSS NORTHERN MINNESOTA  *****

CITY           SKY/WX    TMP DP  RH WIND       PRES   REMARKS
FLAG ISLAND    FAIR      -2  -6  84 SW8       30.12S WCI -17
WARROAD        FAIR       1  -4  78 SW7       30.15S WCI -11
ROSEAU         FAIR       3  -2  78 SW13      30.15S WCI -14
HALLOCK        FAIR       0  -6  78 SW9       30.18S WCI -16
THF RVR FALLS  FAIR       0  -5  79 SW14      30.21S WCI -19
BAUDETTE       FAIR       1  -3  83 SW6       30.13R WCI -10
WASKISH        FAIR       1  -2  85 SW12      30.18R WCI -15
CROOKSTON      FAIR      -2  -8  78 SW9       30.25S WCI -18
STEPHEN NDAWN    N/A     -2  -8  78 SW8         N/A  WCI -17
GREENBUSH NDAW   N/A      0  -6  78 SW12        N/A  WCI -18
$$
  *****  WEATHER ACROSS CENTRAL AND WEST MINNESOTA  *****

CITY           SKY/WX    TMP DP  RH WIND       PRES   REMARKS
FOSSTON        FAIR      -8 -11  84 SW9       30.22R WCI -25
BEMIDJI        FAIR      -2  -5  84 SW6       30.19S WCI -14
PARK RAPIDS    FAIR      -7 -10  87 SW5       30.21R WCI -18
ELBOW LAKE     FAIR      -7 -11  82 W7        30.32R WCI -21
WADENA         FAIR       0  -4  85 W8        30.26R WCI -15
DETROIT LAKES  FAIR       1  -2  85 W6        30.26R WCI -10
MOORHEAD       FAIR      -2  -9  71 SW6       30.31R WCI -14
FERGUS FALLS   FAIR      -8 -11  84 W8        30.33R WCI -23
MORRIS MN      FAIR       0  -6  78 W10       30.33R WCI -17
STAPLES        FAIR      -2  -8  78 W6        30.27R WCI -14
$$
  *****  WEATHER ELSEWHERE ACROSS MINNESOTA  *****

CITY           SKY/WX    TMP DP  RH WIND       PRES   REMARKS
DULUTH         MOCLDY     9   2  73 NW14      30.16R WCI  -7
INTRNTL FALLS  FAIR       4   0  83 W8        30.15R WCI  -9
ELY            CLOUDY     7   3  85 W5        30.14R WCI  -2
CLOQUET        FAIR       7   0  72 W9        30.21R WCI  -7
WHEATON        FAIR       1  -6  71 W12       30.36R WCI -15
BRAINERD       FAIR       2  -4  76 W7        30.27R WCI -11
HIBBING        FAIR       3  -2  79 W7        30.20R WCI  -9
ALEXANDRIA     FAIR       2  -3  80 W9        30.28R WCI -13
SAINT CLOUD    FAIR       3  -1  83 W7        30.31R WCI  -9
MINNEAPOLIS    FAIR       9   2  73 NW12      30.34R WCI  -6
$$

  *****  WEATHER ACROSS SOUTH DAKOTA  *****

CITY           SKY/WX    TMP DP  RH WIND       PRES   REMARKS
SIOUX FALLS    FAIR       3  -2  79 NW12      30.38R WCI -13
BROOKINGS      FAIR       0  -4  83 W12       30.35R WCI -17
WATERTOWN      FAIR      -1  -5  82 W10       30.31R WCI -17
HURON          FAIR      -2  -7  79 SW8       30.41R WCI -17
SISSETON         N/A      4  -3  73 W14       30.32R WCI -14
ABERDEEN       FAIR      -9 -14  78 SW10      30.36R WCI -27
MITCHELL       FAIR       1  -5  75 W10       30.43R WCI -15
PIERRE         FAIR      -3  -9  75 SW9       30.38R WCI -19
MOBRIDGE       FAIR      -6 -11  79 CALM      30.30R
RAPID CITY     FAIR     -11 -14  86 CALM      30.24R
$$

  *****  SOME WEATHER IN NEARBY STATES *****

CITY           SKY/WX    TMP DP  RH WIND       PRES   REMARKS
GLASGOW MT     FAIR      -8 -15  71 W5        30.20R WCI -19
GREAT FALLS MT FAIR       2  -9  60 E7        30.11R WCI -11
CHEYENNE WY    FAIR       4  -2  76 SW7       30.08R WCI  -8
SCOTTSBLUFF NE FAIR      -5 -10  79 E7        30.25R WCI -19
OMAHA NE       FAIR      12   6  77 N10       30.45R WCI  -1
DES MOINES IA  CLOUDY    17  10  74 NW13      30.37R WCI   4
DAVENPORT IA   FAIR      25  18  74 NW17      30.26S WCI  12
CHICAGO IL     LGT RAIN  34  31  88 NW10      30.16R
EAU CLAIRE WI  FAIR      15   7  70 NW10      30.26R WCI   2
LA CROSSE WI   FAIR      19  12  74 NW10      30.29R WCI   7
$$

  *****  SOME NATIONAL WEATHER *****

CITY           SKY/WX    TMP DP  RH WIND       PRES   REMARKS
LA GUARDIA NY  MOCLDY    53  48  83 S9        30.33R
RALEIGH NC     FAIR      64  61  90 S7        30.44S
ATLANTA GA     MOCLDY    69  63  81 SE7       30.36R
NEW ORLEANS LA FAIR      73  72  96 SE8       30.19R
OKLAHOMA CITY  CLOUDY    25  21  85 N17       30.27R WCI  12
ALBUQUERQUE NM MOCLDY    35  15  44 N7        30.11R
SALT LAKE CITY FAIR      19   9  65 SE7       30.16R WCI  10
LOS ANGELES CA FAIR      51  22  31 N3        30.15R
BOISE ID       CLOUDY    25   5  42 SE9       30.15R WCI  15
SEATTLE WA     FAIR      31  22  69 N8        30.24R WCI  23
$$

*** WEATHER ACROSS MANITOBA...SASKATCHEWAN AND ONTARIO ***
                ***ONTARIO***

CITY           SKY/WX    TMP DP  RH WIND       PRES   REMARKS
GERALDTON      NOT AVBL
THUNDER BAY    NOT AVBL
SIOUX LOOKOUT  NOT AVBL
TORONTO        NOT AVBL
BIG TROUT LK   NOT AVBL
PICKLE LAKE    NOT AVBL
DRYDEN         NOT AVBL
KENORA         NOT AVBL
$$
                *** MANITOBA***

CITY           SKY/WX    TMP DP  RH WIND       PRES   REMARKS
BRANDON        NOT AVBL
DAUPHIN        NOT AVBL
ISLAND LAKE    NOT AVBL
PILOT MOUND    NOT AVBL
THE PAS        NOT AVBL
THOMPSON       NOT AVBL
WINNIPEG       NOT AVBL
$$
                ***SASKATCHEWAN***

CITY           SKY/WX    TMP DP  RH WIND       PRES   REMARKS
ESTEVAN        NOT AVBL
KINDERSLEY     NOT AVBL
LLOYDMINSTER   NOT AVBL
PRINCE ALBERT  NOT AVBL
REGINA         NOT AVBL
YORKTON        NOT AVBL
N. BATTLEFORD  NOT AVBL
LA RONGE       NOT AVBL
SASKATOON      NOT AVBL
SWIFT CURRENT  NOT AVBL
$$
NOTE: THESE ARE AUTOMATED STATIONS WITH LIMITED QUALITY CONTROL
      "FAIR" INDICATES FEW OR NO CLOUDS BELOW 12,000 FEET WITH NO
      SIGNIFICANT WEATHER AND/OR OBSTRUCTIONS TO VISIBILITY.
      SKY/WX - SKY CONDITION AND SIGNIFICANT WEATHER.
      TMP - AIR TEMPERATURE.    DP   - DEWPOINT TEMPERATURE.
      RH  - RELATIVE HUMIDITY.  PRES - PRESSURE.
      HX  - HEAT INDEX.         WCI  - WIND CHILL INDEX.
$



USA.gov is the U.S. government's official web portal to all federal, state and local government web resources and services.